Time,TemperatureF,DewpointF,PressureIn,WindDirection,WindDirectionDegrees,WindSpeedMPH,WindSpeedGustMPH,Humidity,HourlyPrecipIn,Conditions,Clouds,dailyrainin,SoftwareType,DateUTC
2015-03-27 00:02:00,37.0,30.0,29.95,NNE,17,3.0,9.0,77,0.00,,,0.28,weatherlink.com 1.10,2015-03-27 04:02:00,
2015-03-27 00:17:00,36.4,30.0,29.95,NW,320,10.0,10.0,76,0.00,,,0.28,weatherlink.com 1.10,2015-03-27 04:17:00,
2015-03-27 00:32:00,36.1,29.0,29.95,North,9,8.0,9.0,74,0.00,,,0.28,weatherlink.com 1.10,2015-03-27 04:32:00,
2015-03-27 00:48:00,35.9,29.0,29.95,NW,313,2.0,9.0,75,0.00,,,0.28,weatherlink.com 1.10,2015-03-27 04:48:00,
2015-03-27 01:03:00,35.7,29.0,29.95,NNW,331,0.0,7.0,76,0.00,,,0.28,weatherlink.com 1.10,2015-03-27 05:03:00,
2015-03-27 01:17:00,35.6,28.0,29.96,NW,323,4.0,6.0,75,0.00,,,0.28,weatherlink.com 1.10,2015-03-27 05:17:00,
2015-03-27 01:32:00,35.5,28.0,29.96,North,5,3.0,8.0,73,0.00,,,0.28,weatherlink.com 1.10,2015-03-27 05:32:00,
2015-03-27 01:47:00,35.3,27.0,29.96,North,355,2.0,10.0,72,0.00,,,0.28,weatherlink.com 1.10,2015-03-27 05:47:00,
2015-03-27 02:03:00,35.1,28.0,29.96,NNW,333,3.0,6.0,74,0.00,,,0.28,weatherlink.com 1.10,2015-03-27 06:03:00,
2015-03-27 02:18:00,34.9,28.0,29.95,NNW,342,2.0,10.0,75,0.00,,,0.28,weatherlink.com 1.10,2015-03-27 06:18:00,
2015-03-27 02:33:00,34.6,27.0,29.95,North,5,3.0,8.0,74,0.00,,,0.28,weatherlink.com 1.10,2015-03-27 06:33:00,
2015-03-27 02:48:00,34.2,27.0,29.95,NNE,13,4.0,5.0,75,0.00,,,0.28,weatherlink.com 1.10,2015-03-27 06:48:00,
2015-03-27 03:03:00,33.7,27.0,29.94,NNW,336,2.0,6.0,75,0.00,,,0.28,weatherlink.com 1.10,2015-03-27 07:03:00,
2015-03-27 03:18:00,33.2,26.0,29.93,North,360,2.0,4.0,76,0.00,,,0.28,weatherlink.com 1.10,2015-03-27 07:18:00,
2015-03-27 03:33:00,32.9,26.0,29.93,NNW,334,1.0,3.0,75,0.00,,,0.28,weatherlink.com 1.10,2015-03-27 07:33:00,
2015-03-27 03:48:00,32.5,26.0,29.93,NNW,334,2.0,4.0,76,0.00,,,0.28,weatherlink.com 1.10,2015-03-27 07:48:00,
2015-03-27 04:03:00,32.2,25.0,29.94,NNW,334,0.0,3.0,76,0.00,,,0.28,weatherlink.com 1.10,2015-03-27 08:03:00,
2015-03-27 04:18:00,31.8,25.0,29.93,NNW,334,2.0,3.0,76,0.00,,,0.28,weatherlink.com 1.10,2015-03-27 08:18:00,
2015-03-27 04:33:00,31.8,25.0,29.93,NNW,334,0.0,4.0,77,0.00,,,0.28,weatherlink.com 1.10,2015-03-27 08:33:00,
2015-03-27 04:48:00,31.6,25.0,29.93,NNW,334,0.0,3.0,77,0.00,,,0.28,weatherlink.com 1.10,2015-03-27 08:48:00,
2015-03-27 05:03:00,31.3,25.0,29.92,NNW,334,1.0,4.0,78,0.00,,,0.28,weatherlink.com 1.10,2015-03-27 09:03:00,
2015-03-27 05:18:00,31.1,25.0,29.93,NNW,334,0.0,3.0,78,0.00,,,0.28,weatherlink.com 1.10,2015-03-27 09:18:00,
2015-03-27 05:33:00,31.0,25.0,29.93,NNW,343,2.0,8.0,79,0.00,,,0.28,weatherlink.com 1.10,2015-03-27 09:33:00,
2015-03-27 05:48:00,30.9,25.0,29.93,NNW,344,2.0,5.0,80,0.00,,,0.28,weatherlink.com 1.10,2015-03-27 09:48:00,
2015-03-27 06:03:00,30.7,26.0,29.93,NNW,346,1.0,4.0,81,0.00,,,0.28,weatherlink.com 1.10,2015-03-27 10:03:00,
2015-03-27 06:18:00,30.4,26.0,29.93,NNW,345,1.0,6.0,82,0.00,,,0.28,weatherlink.com 1.10,2015-03-27 10:18:00,
2015-03-27 06:33:00,30.1,26.0,29.93,NNW,345,1.0,4.0,83,0.00,,,0.28,weatherlink.com 1.10,2015-03-27 10:33:00,
2015-03-27 06:48:00,29.9,25.0,29.94,NNW,345,2.0,3.0,83,0.00,,,0.28,weatherlink.com 1.10,2015-03-27 10:48:00,
2015-03-27 07:03:00,29.6,25.0,29.94,NNW,345,1.0,3.0,84,0.00,,,0.00,weatherlink.com 1.10,2015-03-27 11:03:00,
2015-03-27 07:18:00,29.3,25.0,29.95,NNW,345,2.0,4.0,85,0.00,,,0.00,weatherlink.com 1.10,2015-03-27 11:18:00,
2015-03-27 07:33:00,29.0,25.0,29.95,NNW,345,0.0,2.0,85,0.00,,,0.00,weatherlink.com 1.10,2015-03-27 11:33:00,
2015-03-27 07:48:00,28.8,25.0,29.95,NNW,345,0.0,1.0,85,0.00,,,0.00,weatherlink.com 1.10,2015-03-27 11:48:00,
2015-03-27 08:03:00,28.9,25.0,29.96,NNW,345,0.0,1.0,86,0.00,,,0.00,weatherlink.com 1.10,2015-03-27 12:03:00,
2015-03-27 08:18:00,29.5,26.0,29.97,NNW,345,2.0,5.0,86,0.00,,,0.00,weatherlink.com 1.10,2015-03-27 12:18:00,
2015-03-27 08:33:00,30.2,26.0,29.96,NW,318,2.0,6.0,84,0.00,,,0.00,weatherlink.com 1.10,2015-03-27 12:33:00,
2015-03-27 08:48:00,30.8,26.0,29.96,NNW,340,3.0,7.0,83,0.00,,,0.00,weatherlink.com 1.10,2015-03-27 12:48:00,
2015-03-27 09:03:00,31.0,26.0,29.96,NW,313,5.0,12.0,82,0.00,,,0.00,weatherlink.com 1.10,2015-03-27 13:03:00,
2015-03-27 09:18:00,31.6,26.0,29.96,NNE,14,4.0,10.0,80,0.00,,,0.00,weatherlink.com 1.10,2015-03-27 13:18:00,
2015-03-27 09:33:00,32.0,26.0,29.96,NNW,340,4.0,15.0,78,0.00,,,0.00,weatherlink.com 1.10,2015-03-27 13:33:00,
2015-03-27 09:48:00,32.5,26.0,29.96,NNW,338,9.0,11.0,77,0.00,,,0.00,weatherlink.com 1.10,2015-03-27 13:48:00,
2015-03-27 10:04:00,32.6,26.0,29.96,North,355,6.0,13.0,78,0.00,,,0.00,weatherlink.com 1.10,2015-03-27 14:04:00,
2015-03-27 10:19:00,31.9,25.0,29.97,NNW,329,3.0,12.0,77,0.00,,,0.00,weatherlink.com 1.10,2015-03-27 14:19:00,
2015-03-27 10:34:00,32.3,25.0,29.97,NNW,341,6.0,12.0,75,0.00,,,0.00,weatherlink.com 1.10,2015-03-27 14:34:00,
2015-03-27 10:49:00,33.0,27.0,29.97,North,355,9.0,9.0,77,0.00,,,0.00,weatherlink.com 1.10,2015-03-27 14:49:00,
2015-03-27 11:04:00,32.5,26.0,29.98,North,360,5.0,12.0,76,0.00,,,0.00,weatherlink.com 1.10,2015-03-27 15:04:00,
2015-03-27 11:19:00,31.4,25.0,29.98,NNW,348,2.0,13.0,77,0.00,,,0.00,weatherlink.com 1.10,2015-03-27 15:19:00,
2015-03-27 11:34:00,31.4,25.0,29.98,North,360,4.0,14.0,78,0.00,,,0.00,weatherlink.com 1.10,2015-03-27 15:34:00,
2015-03-27 11:49:00,31.7,25.0,29.98,NNW,333,5.0,13.0,77,0.00,,,0.00,weatherlink.com 1.10,2015-03-27 15:49:00,
2015-03-27 12:04:00,32.2,25.0,29.98,ENE,58,5.0,11.0,74,0.00,,,0.00,weatherlink.com 1.10,2015-03-27 16:04:00,
2015-03-27 12:19:00,29.9,24.0,29.99,ENE,71,13.0,18.0,78,0.00,,,0.00,weatherlink.com 1.10,2015-03-27 16:19:00,
2015-03-27 12:34:00,29.6,22.0,30.00,NNW,348,9.0,15.0,73,0.00,,,0.00,weatherlink.com 1.10,2015-03-27 16:34:00,
2015-03-27 12:49:00,30.2,22.0,29.99,North,360,8.0,14.0,70,0.00,,,0.00,weatherlink.com 1.10,2015-03-27 16:49:00,
2015-03-27 13:04:00,30.9,21.0,29.99,NNW,327,8.0,15.0,68,0.00,,,0.00,weatherlink.com 1.10,2015-03-27 17:04:00,
2015-03-27 13:19:00,31.2,21.0,29.99,NNE,15,7.0,13.0,66,0.00,,,0.00,weatherlink.com 1.10,2015-03-27 17:19:00,
2015-03-27 13:34:00,31.0,22.0,29.99,NE,48,3.0,12.0,68,0.00,,,0.00,weatherlink.com 1.10,2015-03-27 17:34:00,
2015-03-27 13:49:00,31.4,22.0,29.99,NNW,347,5.0,14.0,67,0.00,,,0.00,weatherlink.com 1.10,2015-03-27 17:49:00,
2015-03-27 14:04:00,31.8,22.0,29.99,NW,304,4.0,14.0,66,0.00,,,0.00,weatherlink.com 1.10,2015-03-27 18:04:00,
2015-03-27 14:19:00,31.4,21.0,29.99,NNW,333,7.0,16.0,65,0.00,,,0.00,weatherlink.com 1.10,2015-03-27 18:19:00,
2015-03-27 14:34:00,31.1,20.0,29.99,NNW,348,10.0,18.0,63,0.00,,,0.00,weatherlink.com 1.10,2015-03-27 18:34:00,
2015-03-27 14:49:00,30.4,20.0,30.00,NNW,340,5.0,21.0,65,0.00,,,0.00,weatherlink.com 1.10,2015-03-27 18:49:00,
2015-03-27 15:04:00,30.1,19.0,30.00,North,5,10.0,19.0,63,0.00,,,0.00,weatherlink.com 1.10,2015-03-27 19:04:00,
2015-03-27 15:19:00,30.3,19.0,30.00,West,275,8.0,16.0,62,0.00,,,0.00,weatherlink.com 1.10,2015-03-27 19:19:00,
2015-03-27 15:34:00,30.5,18.0,29.99,NNW,338,8.0,17.0,61,0.00,,,0.00,weatherlink.com 1.10,2015-03-27 19:34:00,
2015-03-27 15:49:00,30.3,18.0,30.00,North,355,10.0,15.0,61,0.00,,,0.00,weatherlink.com 1.10,2015-03-27 19:49:00,
2015-03-27 16:04:00,30.3,17.0,30.00,NNW,344,9.0,14.0,59,0.00,,,0.00,weatherlink.com 1.10,2015-03-27 20:04:00,
2015-03-27 16:19:00,30.2,18.0,30.00,North,355,6.0,13.0,61,0.00,,,0.00,weatherlink.com 1.10,2015-03-27 20:19:00,
2015-03-27 16:34:00,29.8,18.0,30.00,NNW,333,8.0,18.0,62,0.00,,,0.00,weatherlink.com 1.10,2015-03-27 20:34:00,
2015-03-27 16:49:00,29.7,18.0,30.00,NNW,341,12.0,16.0,62,0.00,,,0.00,weatherlink.com 1.10,2015-03-27 20:49:00,
2015-03-27 17:04:00,29.1,19.0,30.01,WNW,298,5.0,16.0,67,0.00,,,0.00,weatherlink.com 1.10,2015-03-27 21:04:00,
2015-03-27 17:19:00,29.2,19.0,30.01,North,5,9.0,16.0,66,0.00,,,0.00,weatherlink.com 1.10,2015-03-27 21:19:00,
2015-03-27 17:34:00,29.2,18.0,30.01,NNW,331,10.0,13.0,63,0.00,,,0.00,weatherlink.com 1.10,2015-03-27 21:34:00,
2015-03-27 17:49:00,28.4,18.0,30.02,NW,321,4.0,15.0,64,0.00,,,0.00,weatherlink.com 1.10,2015-03-27 21:49:00,
2015-03-27 18:04:00,28.3,17.0,30.02,NNW,340,7.0,15.0,63,0.00,,,0.00,weatherlink.com 1.10,2015-03-27 22:04:00,
2015-03-27 18:19:00,28.4,18.0,30.02,North,355,6.0,15.0,65,0.00,,,0.00,weatherlink.com 1.10,2015-03-27 22:19:00,